GW4394 Weather Reports


time (UTC)temp
F
wind
direction
speed
knots
gust
knots
rain 1hr
in
rain 24hr
in
rain mn
in
humidity
%
barometer
mb
20260906172459 99 131 0.0 0.0 0.00 0.00 0.00 42 1014.8
20260906171954 100 17 0.0 2.6 0.00 0.00 0.00 43 1014.8
20260906171448 100 167 0.0 0.9 0.00 0.00 0.00 41 1014.9
20260906170944 97 179 0.0 0.9 0.00 0.00 0.00 44 1015.1
20260906170440 97 45 0.9 2.6 0.00 0.00 0.00 44 1015.0
20260906165937 100 69 0.0 0.0 0.00 0.00 0.00 42 1015.0
20260906165430 99 326 0.0 0.0 0.00 0.00 0.00 44 1015.1
20260906164925 101 161 0.0 0.9 0.00 0.00 0.00 43 1015.0
20260906164424 99 178 0.0 0.0 0.00 0.00 0.00 45 1015.2
20260906163921 100 167 0.0 0.0 0.00 0.00 0.00 43 1015.5
20260906163417 99 175 0.0 0.0 0.00 0.00 0.00 43 1015.2
20260906162914 100 167 0.9 2.6 0.00 0.00 0.00 43 1015.4
20260906162413 98 196 0.0 1.7 0.00 0.00 0.00 45 1015.4
20260906161908 97 151 0.0 0.0 0.00 0.00 0.00 47 1015.5
20260906161407 97 166 0.0 0.0 0.00 0.00 0.00 46 1015.3
20260906160907 98 159 0.0 1.7 0.00 0.00 0.00 45 1015.4
20260906160400 98 165 0.0 0.0 0.00 0.00 0.00 45 1015.5
20260906155859 99 180 0.0 3.5 0.00 0.00 0.00 46 1015.4
20260906155352 98 171 0.0 0.0 0.00 0.00 0.00 46 1015.5
20260906154849 97 164 0.0 0.0 0.00 0.00 0.00 47 1015.3
20260906154343 96 166 0.0 0.0 0.00 0.00 0.00 48 1015.2
20260906153842 96 168 0.0 0.0 0.00 0.00 0.00 47 1015.5
20260906153341 95 167 0.0 0.0 0.00 0.00 0.00 49 1015.2
20260906152837 95 209 0.0 0.0 0.00 0.00 0.00 49 1015.3
20260906152332 96 198 0.0 0.0 0.00 0.00 0.00 47 1015.2
20260906151831 95 168 0.0 0.0 0.00 0.00 0.00 50 1015.3
20260906151327 95 186 0.0 0.0 0.00 0.00 0.00 50 1015.3
20260906150822 92 128 0.0 0.0 0.00 0.00 0.00 53 1015.3
20260906150318 91 143 0.0 0.0 0.00 0.00 0.00 54 1015.1
20260906145817 94 168 0.0 0.0 0.00 0.00 0.00 53 1015.2
20260906145315 92 155 0.0 0.0 0.00 0.00 0.00 54 1015.0
20260906144811 90 165 0.0 0.0 0.00 0.00 0.00 55 1015.0
20260906144305 91 152 0.0 0.0 0.00 0.00 0.00 54 1015.1
20260906143805 90 162 0.0 0.0 0.00 0.00 0.00 56 1015.0
20260906143302 88 165 0.0 0.0 0.00 0.00 0.00 59 1015.1
20260906142801 87 162 0.0 0.0 0.00 0.00 0.00 61 1015.2
20260906142257 86 171 0.0 0.0 0.00 0.00 0.00 64 1015.2
20260906141755 84 187 0.0 0.0 0.00 0.00 0.00 65 1015.1
20260906141250 84 145 0.0 0.0 0.00 0.00 0.00 67 1015.3
20260906140749 83 173 0.0 0.0 0.00 0.00 0.00 68 1015.0
20260906140245 82 179 0.0 0.0 0.00 0.00 0.00 69 1015.2
20260906135742 82 160 0.0 0.0 0.00 0.00 0.00 71 1015.1
20260906135238 81 149 0.0 0.0 0.00 0.00 0.00 71 1015.2
20260906134733 81 182 0.0 0.0 0.00 0.00 0.00 73 1015.1
20260906134228 80 168 0.0 0.0 0.00 0.00 0.00 75 1015.1
20260906133724 80 178 0.0 0.0 0.00 0.00 0.00 78 1015.2
20260906133219 79 171 0.0 0.0 0.00 0.00 0.00 79 1015.1
20260906132714 78 182 0.0 0.0 0.00 0.00 0.00 80 1014.9
20260906132210 78 169 0.0 0.0 0.00 0.00 0.00 83 1015.1
20260906131705 77 178 0.0 0.0 0.00 0.00 0.00 83 1015.0
20260906131200 76 157 0.0 0.0 0.00 0.00 0.00 86 1014.9
20260906130655 75 158 0.0 0.0 0.00 0.00 0.00 88 1014.8
20260906130151 75 158 0.0 0.0 0.00 0.00 0.00 88 1014.8
20260906125648 74 158 0.0 0.0 0.00 0.00 0.00 89 1014.7
20260906125147 74 158 0.0 0.0 0.00 0.00 0.00 90 1014.8
20260906124643 74 158 0.0 0.0 0.00 0.00 0.00 91 1014.6
20260906124138 73 158 0.0 0.0 0.00 0.00 0.00 91 1014.7
20260906123637 73 172 0.0 0.0 0.00 0.00 0.00 92 1014.4
20260906123132 73 172 0.0 0.0 0.00 0.00 0.00 92 1014.5
20260906122632 72 172 0.0 0.0 0.00 0.00 0.00 92 1014.5
20260906122127 72 172 0.0 0.0 0.00 0.00 0.00 93 1014.4
20260906121623 71 172 0.0 0.0 0.00 0.00 0.00 93 1014.4
20260906121120 71 172 0.0 0.0 0.00 0.00 0.00 93 1014.3
20260906120615 71 172 0.0 0.0 0.00 0.00 0.00 93 1014.3
20260906120112 71 171 0.0 0.0 0.00 0.00 0.00 92 1014.2
20260906115606 71 175 0.0 0.0 0.00 0.00 0.00 92 1014.2
20260906115102 71 174 0.0 0.0 0.00 0.00 0.00 93 1013.7
20260906114555 71 174 0.0 0.0 0.00 0.00 0.00 93 1014.0
20260906114051 71 174 0.0 0.0 0.00 0.00 0.00 93 1013.9
20260906113550 71 174 0.0 0.0 0.00 0.00 0.00 92 1013.7
20260906113045 71 174 0.0 0.0 0.00 0.00 0.00 92 1013.9
20260906112540 71 174 0.0 0.0 0.00 0.00 0.00 92 1013.9
20260906112037 72 174 0.0 0.0 0.00 0.00 0.00 92 1014.2
20260906111536 72 174 0.0 0.0 0.00 0.00 0.00 92 1013.9
20260906111032 72 174 0.0 0.0 0.00 0.00 0.00 92 1013.8
20260906110531 72 174 0.0 0.0 0.00 0.00 0.00 92 1013.8
20260906110030 72 174 0.0 0.0 0.00 0.00 0.00 91 1013.7
20260906105526 72 174 0.0 0.0 0.00 0.00 0.00 91 1013.8
20260906105022 73 174 0.0 0.0 0.00 0.00 0.00 91 1013.9
20260906104520 73 174 0.0 0.0 0.00 0.00 0.00 90 1013.8
20260906104015 73 174 0.0 0.0 0.00 0.00 0.00 91 1013.8
20260906103513 73 174 0.0 0.0 0.00 0.00 0.00 91 1013.7
20260906103009 73 174 0.0 0.0 0.00 0.00 0.00 92 1013.9
20260906102509 72 174 0.0 0.0 0.00 0.00 0.00 91 1013.9
20260906102008 72 174 0.0 0.0 0.00 0.00 0.00 91 1013.8
20260906101503 72 174 0.0 0.0 0.00 0.00 0.00 91 1013.8
20260906100959 72 174 0.0 0.0 0.00 0.00 0.00 91 1013.9
20260906100454 73 174 0.0 0.0 0.00 0.00 0.00 90 1013.7
20260906095954 73 174 0.0 0.0 0.00 0.00 0.00 90 1013.4
20260906095449 73 174 0.0 0.0 0.00 0.00 0.00 90 1013.8
20260906094944 73 174 0.0 0.0 0.00 0.00 0.00 90 1013.6
20260906094443 73 174 0.0 0.0 0.00 0.00 0.00 90 1013.7
20260906093939 73 174 0.0 0.0 0.00 0.00 0.00 89 1013.8
20260906093436 73 174 0.0 0.0 0.00 0.00 0.00 88 1013.6
20260906092936 73 174 0.0 0.0 0.00 0.00 0.00 87 1013.6
20260906092435 73 174 0.0 0.0 0.00 0.00 0.00 87 1013.7
20260906091931 73 174 0.0 0.0 0.00 0.00 0.00 86 1013.7
20260906091426 73 174 0.0 0.0 0.00 0.00 0.00 86 1013.6
20260906090923 73 174 0.0 0.0 0.00 0.00 0.00 86 1013.7
20260906090418 73 174 0.0 0.0 0.00 0.00 0.00 86 1013.7
20260906085912 73 174 0.0 0.0 0.00 0.00 0.00 85 1013.4
20260906085411 73 174 0.0 0.0 0.00 0.00 0.00 84 1013.4
20260906084906 74 174 0.0 0.0 0.00 0.00 0.00 84 1013.3
20260906084401 74 174 0.0 0.0 0.00 0.00 0.00 84 1013.3
20260906083854 74 174 0.0 0.0 0.00 0.00 0.00 84 1013.4
20260906083350 74 174 0.0 0.0 0.00 0.00 0.00 84 1013.4
20260906082849 74 174 0.0 0.0 0.00 0.00 0.00 84 1013.6
20260906082345 74 174 0.0 0.0 0.00 0.00 0.00 84 1013.3
20260906081841 74 174 0.0 0.0 0.00 0.00 0.00 84 1013.7
20260906081336 74 174 0.0 0.0 0.00 0.00 0.00 83 1013.6
20260906080832 74 174 0.0 0.0 0.00 0.00 0.00 82 1013.6
20260906080328 75 174 0.0 0.0 0.00 0.00 0.00 82 1013.6
20260906075827 75 174 0.0 0.0 0.00 0.00 0.00 82 1013.6
20260906075327 75 174 0.0 0.0 0.00 0.00 0.00 81 1013.6
20260906074823 75 175 0.0 0.0 0.00 0.00 0.00 80 1013.3
20260906074322 76 175 0.0 0.0 0.00 0.00 0.00 79 1013.3
20260906073822 76 175 0.0 0.0 0.00 0.00 0.00 79 1013.4
20260906073321 76 175 0.0 0.0 0.00 0.00 0.00 79 1013.3
20260906072818 76 175 0.0 0.0 0.00 0.00 0.00 78 1013.6
20260906072313 76 175 0.0 0.0 0.00 0.00 0.00 78 1013.4
20260906071809 76 175 0.0 0.0 0.00 0.00 0.00 78 1013.6
20260906071304 76 175 0.0 0.0 0.00 0.00 0.00 78 1013.6
20260906070801 76 175 0.0 0.0 0.00 0.00 0.00 77 1013.6
20260906070256 77 175 0.0 0.0 0.00 0.00 0.00 77 1013.7
20260906065755 77 175 0.0 0.0 0.00 0.00 0.00 77 1013.6
20260906065251 77 175 0.0 0.0 0.00 0.00 0.00 77 1013.8
20260906064747 77 175 0.0 0.0 0.00 0.00 0.00 76 1013.8
20260906064242 77 174 0.0 0.0 0.00 0.00 0.00 76 1013.7
20260906063737 77 174 0.0 0.0 0.00 0.00 0.00 76 1013.9
20260906063233 77 175 0.0 0.0 0.00 0.00 0.00 75 1013.9
20260906062728 77 175 0.0 0.0 0.00 0.00 0.00 75 1014.0
20260906062227 78 174 0.0 0.0 0.00 0.00 0.00 74 1013.9
20260906061723 78 174 0.0 0.0 0.00 0.00 0.00 73 1013.9
20260906061219 79 174 0.0 0.0 0.00 0.00 0.00 72 1013.8
20260906060714 79 191 0.0 0.0 0.00 0.00 0.00 71 1013.7
20260906060212 80 194 0.0 0.0 0.00 0.00 0.00 70 1013.8
20260906055707 80 174 0.0 0.0 0.00 0.00 0.00 69 1013.8
20260906055202 80 178 0.0 0.0 0.00 0.00 0.00 70 1013.8
20260906054657 80 178 0.0 0.0 0.00 0.00 0.00 70 1013.9
20260906054158 80 178 0.0 0.0 0.00 0.00 0.00 70 1013.8
20260906053654 79 179 0.0 0.0 0.00 0.00 0.00 71 1013.8
20260906053149 79 170 0.0 0.0 0.00 0.00 0.00 71 1013.8
20260906052645 79 170 0.0 0.0 0.00 0.00 0.00 71 1013.8
20260906052141 79 170 0.0 0.0 0.00 0.00 0.00 71 1013.4
20260906051637 80 170 0.0 0.0 0.00 0.00 0.00 70 1013.6
20260906051131 80 170 0.0 0.0 0.00 0.00 0.00 70 1013.4
20260906050627 80 170 0.0 0.0 0.00 0.00 0.00 69 1013.7
20260906050122 80 170 0.0 0.0 0.00 0.00 0.00 68 1013.4
20260906045620 80 170 0.0 0.0 0.00 0.00 0.00 68 1013.6
20260906045116 80 170 0.0 0.0 0.00 0.00 0.00 69 1013.4
20260906044612 80 170 0.0 0.0 0.00 0.00 0.00 69 1013.7
20260906044107 80 170 0.0 0.0 0.00 0.00 0.00 69 1013.4
20260906043603 81 170 0.0 0.0 0.00 0.00 0.00 68 1013.4
20260906043058 81 170 0.0 0.0 0.00 0.00 0.00 68 1013.7
20260906042557 81 170 0.0 0.0 0.00 0.00 0.00 68 1013.8
20260906042051 81 170 0.0 0.0 0.00 0.00 0.00 69 1013.8
20260906041548 80 170 0.0 0.0 0.00 0.00 0.00 69 1013.7
20260906041042 80 170 0.0 0.0 0.00 0.00 0.00 70 1013.7
20260906040538 80 170 0.0 0.0 0.00 0.00 0.00 70 1013.8
20260906040033 80 170 0.0 0.0 0.00 0.00 0.00 70 1013.4
20260906035528 81 170 0.0 0.0 0.00 0.00 0.00 70 1013.6
20260906035024 81 170 0.0 0.0 0.00 0.00 0.00 70 1013.6
20260906034518 81 170 0.0 0.0 0.00 0.00 0.00 69 1013.8
20260906034013 81 170 0.0 0.0 0.00 0.00 0.00 68 1013.4
20260906033508 81 170 0.0 0.0 0.00 0.00 0.00 69 1013.8
20260906033004 81 170 0.0 0.0 0.00 0.00 0.00 69 1013.8
20260906032500 81 170 0.0 0.0 0.00 0.00 0.00 69 1013.6
20260906032000 82 170 0.0 0.0 0.00 0.00 0.00 68 1013.6
20260906031456 82 170 0.0 0.0 0.00 0.00 0.00 67 1013.7
20260906030951 83 170 0.0 0.0 0.00 0.00 0.00 66 1013.6
20260906030445 83 170 0.0 0.0 0.00 0.00 0.00 66 1013.3
20260906025939 83 170 0.0 0.0 0.00 0.00 0.00 65 1013.3
20260906025433 84 169 0.0 0.0 0.00 0.00 0.00 64 1013.6
20260906024932 84 191 0.0 0.0 0.00 0.00 0.00 64 1013.3
20260906024427 84 173 0.0 0.0 0.00 0.00 0.00 63 1013.1
20260906023922 85 178 0.0 0.0 0.00 0.00 0.00 62 1013.2
20260906023418 85 168 0.0 0.0 0.00 0.00 0.00 61 1013.3
20260906022918 85 188 0.0 0.0 0.00 0.00 0.00 61 1013.1
20260906022413 85 171 0.0 0.0 0.00 0.00 0.00 61 1013.1
20260906021908 86 168 0.0 0.0 0.00 0.00 0.00 60 1012.9
20260906021408 86 138 0.0 0.0 0.00 0.00 0.00 60 1013.0
20260906020903 86 182 0.0 0.0 0.00 0.00 0.00 59 1012.9
20260906020403 86 170 0.0 0.0 0.00 0.00 0.00 59 1012.8
20260906015857 87 170 0.0 0.0 0.00 0.00 0.00 58 1012.7
20260906015356 87 170 0.0 0.0 0.00 0.00 0.00 57 1012.7
20260906014850 87 182 0.0 0.0 0.00 0.00 0.00 57 1012.5
20260906014345 88 185 0.0 0.9 0.00 0.00 0.00 56 1012.7
20260906013842 88 170 0.0 0.0 0.00 0.00 0.00 56 1012.4
20260906013337 88 166 0.0 0.0 0.00 0.00 0.00 55 1012.6
20260906012832 89 177 0.0 0.0 0.00 0.00 0.00 54 1012.7
20260906012327 89 185 0.0 0.0 0.00 0.00 0.00 53 1012.5
20260906011826 89 199 0.0 0.0 0.00 0.00 0.00 53 1012.4
20260906011321 89 174 0.0 0.0 0.00 0.00 0.00 53 1012.5
20260906010817 88 187 0.0 0.0 0.00 0.00 0.00 55 1012.3
20260906010313 89 187 0.0 0.0 0.00 0.00 0.00 54 1012.3
20260906005808 89 187 0.0 0.0 0.00 0.00 0.00 53 1012.2
20260906005307 90 187 0.0 0.0 0.00 0.00 0.00 53 1012.2
20260906004807 90 187 0.0 0.0 0.00 0.00 0.00 51 1012.2
20260906004306 91 187 0.0 0.0 0.00 0.00 0.00 50 1012.3
20260906003801 92 187 0.0 0.0 0.00 0.00 0.00 50 1012.3
20260906003257 92 186 0.0 0.0 0.00 0.00 0.00 48 1012.3
20260906002753 92 173 0.0 0.0 0.00 0.00 0.00 48 1012.2
20260906002246 93 168 0.0 0.0 0.00 0.00 0.00 47 1012.2
20260906001742 93 171 0.0 0.0 0.00 0.00 0.00 46 1012.2
20260906001237 93 344 1.7 3.5 0.00 0.00 0.00 45 1012.3
20260906000732 93 172 0.0 0.0 0.00 0.00 0.00 44 1012.3
20260906000226 94 172 0.0 0.0 0.00 0.00 0.00 43 1012.2
20260905235721 95 172 0.0 0.0 0.00 0.00 0.00 41 1012.2
20260905235216 95 172 0.0 0.0 0.00 0.00 0.00 41 1012.2
20260905234712 96 174 0.0 0.0 0.00 0.00 0.00 40 1012.2
20260905234207 96 180 0.0 0.0 0.00 0.00 0.00 39 1012.1
20260905233702 96 171 0.0 0.0 0.00 0.00 0.00 38 1012.3
20260905233201 97 169 0.0 0.0 0.00 0.00 0.00 38 1012.0
20260905232656 97 176 0.0 0.9 0.00 0.00 0.00 36 1012.2
20260905232151 97 193 0.0 0.0 0.00 0.00 0.00 36 1012.1
20260905231646 97 176 0.0 0.0 0.00 0.00 0.00 36 1012.2
20260905231143 97 151 0.0 0.0 0.00 0.00 0.00 37 1012.1
20260905230638 98 148 0.0 0.0 0.00 0.00 0.00 36 1012.1
20260905230136 98 201 0.0 0.0 0.00 0.00 0.00 36 1012.0
20260905225636 98 148 0.0 0.0 0.00 0.00 0.00 36 1012.1
20260905225131 98 156 0.0 0.0 0.00 0.00 0.00 36 1012.0
20260905224630 98 172 0.0 0.0 0.00 0.00 0.00 36 1011.8
20260905224125 99 195 0.0 0.0 0.00 0.00 0.00 36 1011.9
20260905223622 99 160 0.0 0.0 0.00 0.00 0.00 36 1012.0
20260905223118 99 173 0.0 0.0 0.00 0.00 0.00 36 1012.1
20260905222618 99 168 0.0 0.0 0.00 0.00 0.00 36 1012.0
20260905222113 98 148 0.0 0.0 0.00 0.00 0.00 37 1012.0
20260905221609 99 186 0.0 0.0 0.00 0.00 0.00 36 1012.1
20260905221105 99 191 0.0 0.0 0.00 0.00 0.00 36 1012.1
20260905220600 99 157 0.0 0.0 0.00 0.00 0.00 37 1012.2
20260905220057 101 136 0.0 0.9 0.00 0.00 0.00 36 1012.2
20260905215556 102 189 0.0 0.0 0.00 0.00 0.00 35 1012.1
20260905215052 101 169 0.0 0.0 0.00 0.00 0.00 36 1012.1
20260905214548 100 186 0.0 0.0 0.00 0.00 0.00 35 1012.3
20260905214042 100 153 0.0 0.0 0.00 0.00 0.00 36 1012.2
20260905213537 101 117 0.0 0.9 0.00 0.00 0.00 36 1012.3
20260905213033 101 225 0.0 0.9 0.00 0.00 0.00 36 1012.3
20260905212528 101 108 0.0 0.0 0.00 0.00 0.00 36 1012.5
20260905212027 101 181 0.0 0.0 0.00 0.00 0.00 37 1012.3
20260905211523 101 186 0.0 0.0 0.00 0.00 0.00 36 1012.5
20260905211019 102 194 0.0 0.9 0.00 0.00 0.00 36 1012.5
20260905210514 103 175 0.0 0.0 0.00 0.00 0.00 36 1012.7
20260905210014 104 227 0.0 0.0 0.00 0.00 0.00 34 1012.9
20260905205508 101 212 0.0 0.0 0.00 0.00 0.00 37 1012.7
20260905205007 103 168 0.0 1.7 0.00 0.00 0.00 35 1012.9
20260905204502 103 179 0.0 0.0 0.00 0.00 0.00 35 1013.0
20260905204002 103 218 0.0 0.0 0.00 0.00 0.00 35 1012.9
20260905203457 105 202 0.0 0.0 0.00 0.00 0.00 34 1013.0
20260905202953 104 189 0.0 0.0 0.00 0.00 0.00 34 1013.2
20260905202448 102 193 0.0 0.0 0.00 0.00 0.00 36 1013.2
20260905201943 103 141 0.9 2.6 0.00 0.00 0.00 34 1013.2
20260905201438 103 170 0.0 1.7 0.00 0.00 0.00 35 1013.1
20260905200932 103 158 0.0 0.0 0.00 0.00 0.00 36 1013.2
20260905200429 102 207 0.0 0.0 0.00 0.00 0.00 37 1013.6
20260905195926 101 155 0.0 0.9 0.00 0.00 0.00 38 1013.7
20260905195422 102 155 0.0 1.7 0.00 0.00 0.00 37 1013.7
20260905194918 103 157 0.0 2.6 0.00 0.00 0.00 36 1013.7
20260905194412 102 147 0.0 0.9 0.00 0.00 0.00 37 1013.8
20260905193911 102 175 0.0 1.7 0.00 0.00 0.00 38 1013.7
20260905193412 101 171 0.0 0.0 0.00 0.00 0.00 38 1013.9
20260905192907 102 170 0.0 0.9 0.00 0.00 0.00 38 1014.1
20260905192402 100 182 0.0 2.6 0.00 0.00 0.00 40 1013.8
20260905191857 102 359 0.9 1.7 0.00 0.00 0.00 38 1013.9
20260905191356 101 185 0.0 0.0 0.00 0.00 0.00 40 1014.0
20260905190855 98 205 0.0 0.0 0.00 0.00 0.00 42 1013.9
20260905190348 98 131 0.0 6.1 0.00 0.00 0.00 42 1014.2
20260905185847 101 147 0.0 0.9 0.00 0.00 0.00 41 1014.2
20260905185342 102 118 0.0 0.0 0.00 0.00 0.00 39 1014.5
20260905184836 102 184 0.9 2.6 0.00 0.00 0.00 39 1014.6
20260905184336 100 179 0.0 0.9 0.00 0.00 0.00 40 1014.6
20260905183834 99 175 0.0 2.6 0.00 0.00 0.00 43 1014.7
20260905183330 100 111 0.9 3.5 0.00 0.00 0.00 42 1014.5
20260905182830 102 162 0.0 0.9 0.00 0.00 0.00 39 1014.6
20260905182329 101 187 0.0 0.0 0.00 0.00 0.00 41 1014.8
20260905181825 97 179 0.0 0.0 0.00 0.00 0.00 41 1014.8
20260905181324 96 18 0.0 0.9 0.00 0.00 0.00 42 1014.8
20260905180823 96 62 0.0 0.0 0.00 0.00 0.00 43 1014.9
20260905180319 99 50 0.9 3.5 0.00 0.00 0.00 41 1014.8
20260905175813 99 51 0.9 3.5 0.00 0.00 0.00 42 1014.8
20260905175308 100 181 0.0 0.0 0.00 0.00 0.00 41 1014.9
20260905174803 100 190 0.9 2.6 0.00 0.00 0.00 40 1015.0
20260905174259 98 188 0.0 0.9 0.00 0.00 0.00 43 1015.2
20260905173755 98 121 0.0 0.9 0.00 0.00 0.00 44 1015.2
20260905173250 97 189 0.0 0.0 0.00 0.00 0.00 45 1015.3
20260905172750 97 187 0.0 1.7 0.00 0.00 0.00 46 1015.3